Kaneohe MCBH, HI

8:09 AM HST on June 27, 2017 (GMT -1000)
Kaneohe Bay Marine Corps Air Facility

Weather History for PHNG - November, 2011

Change the Weather History Date:

Sunday, November 20, 2011

  Actual Average Record
Temperature  
Mean Temperature 76 °F -  
Max Temperature 78 °F 78 °F 82 °F (2006)
Min Temperature 73 °F 70 °F 68 °F (1997)
Cooling Degree Days 10    
Growing Degree Days 26 (Base 50)    
Moisture  
Dew Point 67 °F    
Average Humidity 73    
Maximum Humidity 82    
Minimum Humidity 69    
Precipitation  
Precipitation 0.09 in - - ()
Sea Level Pressure  
Sea Level Pressure 30.04 in    
Wind  
Wind Speed 12 mph (East)    
Max Wind Speed 16 mph    
Max Gust Speed 30 mph    
Visibility 10 miles    
Events Rain    
Averages and records for this station are not official NWS values.
T = Trace of Precipitation, MM = Missing Value Source: NWS Daily Summary

Daily Weather History Graph

Daily Weather History Graph

Search for Another Location

Airport or City:

Trip Planner

Search our weather history database for the weather conditions in past years. The results will help you decide how hot, cold, wet, or windy it might be!

Date:

Astronomy

Nov. 20, 2011 Rise Set
Actual Time 6:45 AM HST 5:48 PM HST
Civil Twilight 6:21 AM HST 6:11 PM HST
Nautical Twilight 5:54 AM HST 6:38 PM HST
Astronomical Twilight 5:27 AM HST 7:05 PM HST
Moon 2:00 AM HST (11/20) 2:14 PM HST (11/20)
Length of Visible Light 11h 50m
Length of Day
11h 02m
Waning Crescent, 25% of the Moon is Illuminated
Nov 20
Waning Crescent
Nov 24
New
Dec 1
First Quarter
Dec 10
Full
Dec 17
Last Quarter

Hourly Weather History & Observations

Time (HST) Temp. Dew Point Humidity Pressure Visibility Wind Dir Wind Speed Gust Speed Precip Events Conditions
12:47 AM 75.2 °F 66.2 °F 73% 30.06 in 10.0 mi East 13.8 mph 24.2 mph N/A   Overcast
12:57 AM 75.0 °F 68.0 °F 79% 30.04 in 10.0 mi East 10.4 mph 24.2 mph N/A   Mostly Cloudy
1:20 AM - - N/A% - - North - - N/A   Unknown
1:57 AM 75.0 °F 66.0 °F 73% 30.03 in 10.0 mi East 12.7 mph 23.0 mph N/A   Overcast
2:50 AM 75.2 °F 66.2 °F 73% 30.03 in 10.0 mi East 10.4 mph 19.6 mph 0.00 in Rain Light Rain
2:57 AM 75.0 °F 66.0 °F 73% 30.01 in 10.0 mi East 11.5 mph 19.6 mph 0.00 in Rain Light Rain
3:17 AM 75.2 °F 66.2 °F 73% 30.03 in 10.0 mi East 11.5 mph 24.2 mph 0.00 in   Mostly Cloudy
3:24 AM 75.2 °F 66.2 °F 73% 30.03 in 6.2 mi East 10.4 mph 17.3 mph 0.00 in   Mostly Cloudy
3:57 AM 75.9 °F 66.0 °F 71% 30.01 in 10.0 mi East 15.0 mph 23.0 mph 0.00 in   Mostly Cloudy
4:24 AM 75.2 °F 66.2 °F 73% 30.03 in 10.0 mi East 10.4 mph 23.0 mph 0.01 in   Mostly Cloudy
4:49 AM 75.2 °F 66.2 °F 73% 30.03 in 6.2 mi ENE 12.7 mph 24.2 mph 0.01 in   Mostly Cloudy
4:57 AM 75.0 °F 66.0 °F 73% 30.02 in 10.0 mi East 11.5 mph 21.9 mph 0.01 in   Mostly Cloudy
5:10 AM 75.2 °F 64.4 °F 69% 30.04 in 10.0 mi East 15.0 mph 23.0 mph N/A   Mostly Cloudy
5:18 AM 75.2 °F 64.4 °F 69% 30.04 in 10.0 mi East 10.4 mph 23.0 mph N/A   Mostly Cloudy
5:57 AM 75.0 °F 64.9 °F 71% 30.03 in 10.0 mi East 11.5 mph 19.6 mph N/A   Scattered Clouds
6:57 AM 75.0 °F 66.9 °F 76% 30.05 in 10.0 mi East 8.1 mph 18.4 mph N/A   Mostly Cloudy
7:57 AM 75.9 °F 66.0 °F 71% 30.08 in 10.0 mi ENE 11.5 mph 21.9 mph N/A   Mostly Cloudy
8:57 AM 75.9 °F 68.0 °F 76% 30.08 in 10.0 mi ENE 11.5 mph 17.3 mph 0.00 in   Mostly Cloudy
9:57 AM 77.0 °F 66.9 °F 71% 30.08 in 10.0 mi ENE 13.8 mph 20.7 mph 0.00 in   Mostly Cloudy
10:16 AM 77.0 °F 69.8 °F 78% 30.10 in 10.0 mi ENE 16.1 mph 24.2 mph 0.00 in   Mostly Cloudy
10:23 AM 77.0 °F 69.8 °F 78% 30.10 in 6.2 mi ENE 15.0 mph 23.0 mph 0.00 in   Mostly Cloudy
10:57 AM 77.0 °F 66.9 °F 71% 30.07 in 10.0 mi East 16.1 mph 24.2 mph 0.00 in   Overcast
11:37 AM 77.0 °F 68.0 °F 74% 30.08 in 10.0 mi East 12.7 mph 21.9 mph 0.00 in   Overcast
11:57 AM 77.0 °F 66.9 °F 71% 30.05 in 10.0 mi East 9.2 mph 18.4 mph 0.00 in   Overcast
12:57 PM 77.0 °F 68.0 °F 74% 30.03 in 10.0 mi ESE 6.9 mph 17.3 mph N/A   Overcast
1:15 PM - - N/A% - - North - - N/A   Unknown
1:48 PM 73.4 °F 66.2 °F 78% 30.02 in 10.0 mi East 6.9 mph 23.0 mph 0.02 in Rain Light Rain
1:57 PM 75.0 °F 68.0 °F 79% 30.00 in 10.0 mi East 11.5 mph 23.0 mph 0.02 in Rain Light Rain
2:57 PM 77.0 °F 66.9 °F 71% 30.00 in 10.0 mi East 10.4 mph 21.9 mph N/A   Mostly Cloudy
3:05 PM 77.0 °F 68.0 °F 74% 30.02 in 10.0 mi East 11.5 mph 19.6 mph N/A   Mostly Cloudy
3:43 PM 78.8 °F 68.0 °F 69% 30.01 in 10.0 mi Variable 5.8 mph 17.3 mph N/A   Overcast
3:55 PM 77.0 °F 66.2 °F 69% 30.01 in 10.0 mi East 8.1 mph - N/A   Mostly Cloudy
3:57 PM 78.1 °F 68.0 °F 71% 29.99 in 10.0 mi East 9.2 mph 17.3 mph N/A   Mostly Cloudy
4:16 PM - - N/A% - 10.0 mi East 10.4 mph 21.9 mph N/A   Mostly Cloudy
4:30 PM - - N/A% - - North - - N/A   Unknown
4:45 PM 77.0 °F 68.0 °F 74% 30.02 in 10.0 mi ENE 13.8 mph 24.2 mph N/A   Overcast
4:57 PM 77.0 °F 66.9 °F 71% 30.01 in 10.0 mi East 11.5 mph 20.7 mph N/A   Overcast
5:35 PM 77.0 °F 66.2 °F 69% 30.03 in 6.2 mi East 11.5 mph 23.0 mph N/A   Mostly Cloudy
5:57 PM 75.0 °F 69.1 °F 82% 30.03 in 10.0 mi East 12.7 mph 24.2 mph 0.06 in Rain Rain
6:24 PM 75.2 °F 68.0 °F 78% 30.06 in 10.0 mi ENE 15.0 mph 24.2 mph 0.00 in   Mostly Cloudy
6:37 PM 75.2 °F 68.0 °F 78% 30.06 in 10.0 mi East 9.2 mph 18.4 mph 0.00 in   Scattered Clouds
6:57 PM 75.9 °F 68.0 °F 76% 30.04 in 10.0 mi East 9.2 mph 21.9 mph 0.00 in   Mostly Cloudy
7:49 PM 75.2 °F 66.2 °F 73% 30.07 in 10.0 mi East 13.8 mph 26.5 mph N/A   Mostly Cloudy
7:57 PM 75.9 °F 68.0 °F 76% 30.06 in 10.0 mi East 11.5 mph 26.5 mph N/A   Mostly Cloudy
8:04 PM 75.2 °F 68.0 °F 78% 30.07 in 10.0 mi ENE 16.1 mph 29.9 mph N/A   Mostly Cloudy
8:28 PM 75.2 °F 66.2 °F 73% 30.08 in 10.0 mi East 15.0 mph 29.9 mph 0.00 in   Overcast
8:44 PM 75.2 °F 66.2 °F 73% 30.08 in 10.0 mi ENE 16.1 mph 28.8 mph 0.00 in   Overcast
8:57 PM 75.0 °F 66.0 °F 73% 30.06 in 10.0 mi East 12.7 mph 29.9 mph 0.00 in   Mostly Cloudy
9:57 PM 75.2 °F 66.2 °F 73% 30.08 in 10.0 mi ENE 16.1 mph 23.0 mph N/A   Overcast
10:57 PM 75.9 °F 66.0 °F 71% 30.06 in 10.0 mi East 12.7 mph 19.6 mph N/A   Overcast
11:57 PM 75.9 °F 64.9 °F 69% 30.06 in 10.0 mi East 9.2 mph 21.9 mph N/A   Overcast